www.pogodaiklimat.ru

Погода и климат >> Архив погоды >> Новая Зеландия >> Квинстаун


ПОГОДА в Квинстауне

  • Прогноз погоды в Квинстауне
  • Монитор погоды в Квинстауне

АРХИВ ПОГОДЫ в Квинстауне

Время (UTC), дата Ветер
(напр.,м/с)
 
Видим.   Явления Облачность Т
(С)
Тd
(С)
f
(%)
Тe
(С)
Тes
(С)
Комфортность P
(гПа)
Po
(гПа)
Тmin
(С)
Tmax
(С)
R
(мм)
R24
(мм)
S
(см)
15 20.05 СВ 2 50 км н/о 0.0 -1.2 92 -3 -3 1022.5 977.9
18 20.05 СВ 2 50 км н/о -0.5 -1.4 94 -4 -4 1022.9 978.2
21 20.05 СВ 3 20 км н/о +0.8 -0.7 90 -4 -4 1024.0 979.4
00 21.05 СВ 2 20 км н/о +9.2 +2.2 62 +8 +8 1022.2 979.0 -1.5
03 21.05 З 1 20 км н/о +14.7 -0.8 34 +15 +15 1019.5 977.2
06 21.05 СЗ 1 20 км н/о +5.6 +0.4 69 +6 +6 1020.9 977.2
09 21.05 С 2 20 км н/о +2.4 -0.2 83 -1 -1 1021.7 977.5
12 21.05 СВ 2 50 км н/о +1.4 -1.1 83 -2 -2 1021.3 976.9 +15.4
15 21.05 СВ 3 50 км н/о +2.8 -0.9 77 -1 -1 1021.2 977.1
18 21.05 СВ 3 50 км н/о +3.0 -0.7 77 -1 -1 1020.1 976.0
21 21.05 СВ 4 20 км н/о +2.6 -0.3 81 -2 -2 1020.4 976.3
00 22.05 С 1 20 км н/о +11.0 +4.6 65 +12 +12 1019.1 976.3 +0.6
03 22.05 ЮЗ 7 20 км н/о +13.4 +8.4 72 +11 +11 1017.8 975.4
06 22.05 ЮЗ 1 50 км н/о +11.4 +7.5 77 +11 +11 1019.2 976.5
09 22.05 С 2 50 км н/о +8.2 +5.7 84 +7 +7 1020.7 977.4
12 22.05 З 3 50 км н/о +11.6 +7.1 74 +10 +10 1021.6 978.8 +14.8
15 22.05 С 3 50 км н/о +8.0 +5.2 82 +6 +6 1022.9 979.5
18 22.05 С 3 50 км н/о +6.9 +5.2 89 +4 +4 1024.1 980.5
21 22.05 СВ 2 20 км н/о +6.3 +4.1 86 +4 +4 1026.1 982.3
00 23.05 З 2 20 км н/о +13.8 +5.9 59 +14 +14 1025.3 982.6 +4.8
03 23.05 З 2 20 км н/о +12.3 +6.5 68 +11 +11 1024.6 981.8
06 23.05 З 2 50 км н/о +9.4 +4.2 70 +8 +8 1025.3 982.0
09 23.05 СВ 2 20 км н/о +4.4 +2.2 86 +2 +2 1026.8 982.7
12 23.05 В 2 20 км н/о +1.5 0.0 90 -1 -1 1027.3 982.7 +14.5
15 23.05 С 3 50 км н/о +2.7 +1.7 93 -1 -1 1027.0 982.6
18 23.05 СВ 2 50 км н/о +0.8 -0.7 90 -3 -3 1026.6 981.9
21 23.05 СВ 5 20 км н/о +3.1 +1.3 88 -2 -2 1026.4 982.1
00 24.05 Ю 2 20 км н/о +13.2 +3.8 53 +13 +13 1023.4 980.7 +0.2
03 24.05 ЮЗ 4 20 км н/о +15.4 +4.8 49 +15 +15 1020.5 978.3
06 24.05 З 3 50 км н/о +12.8 +4.8 58 +12 +12 1021.3 978.7
09 24.05 З 2 50 км н/о +11.8 +5.2 64 +11 +11 1022.0 979.2
12 24.05 ЮЗ 3 50 км н/о +10.8 +5.7 71 +9 +9 1021.8 978.9 +15.7
15 24.05 Ю 1 20 км н/о +10.4 +4.8 68 +10 +10 1020.8 977.8
18 24.05 СВ 3 50 км н/о +5.2 +2.9 85 +2 +2 1020.4 976.7
21 24.05 С 3 50 км н/о +6.6 +3.9 83 +4 +4 1019.6 976.1
00 25.05 С 2 20 км н/о +12.1 +6.4 68 +11 +11 1017.3 974.7 +4.8
03 25.05 З 5 20 км н/о +14.7 +5.2 53 +13 +13 1013.3 971.3
06 25.05 З 3 50 км н/о +13.5 +6.2 61 +12 +12 1012.5 970.3
09 25.05 ЮЗ 5 50 км н/о +13.5 +6.6 63 +12 +12 1011.9 969.8
12 25.05 З 4 10 км н/о +11.3 +8.9 85 +9 +9 1013.8 971.3 +16.7 2
15 25.05 З 2 50 км н/о +10.2 +9.0 92 +9 +9 1013.7 971.0
18 25.05 СВ 3 50 км н/о +8.7 +8.1 96 +6 +6 1013.8 970.9 5
21 25.05 СВ 2 20 км н/о +8.1 +7.4 95 +6 +6 1013.9 970.9
00 26.05 ЮЗ 2 4000 м н/о +9.7 +8.9 95 +8 +8 1015.0 972.2 +7.8 13
03 26.05 С 3 20 км н/о +10.6 +9.7 94 +8 +8 1011.6 969.1
06 26.05 ЮЗ 1 20 км н/о +10.0 +9.5 97 +10 +10 1010.7 968.1 4
09 26.05 С 3 20 км н/о +9.7 +9.4 98 +7 +7 1010.3 967.7
12 26.05 СВ 3 20 км н/о +8.6 +8.3 98 +6 +6 1008.8 966.1 +11.4 0.2
15 26.05 В 2 50 км н/о +7.5 +7.1 97 +6 +6 1006.6 963.8
18 26.05 З 1 10 км н/о +8.2 +7.7 97 +7 +7 1005.1 962.5 1
21 26.05 Ю 1 4000 м н/о +8.7 +8.3 97 +9 +9 1006.4 963.8
00 27.05 С 2 20 км н/о +9.9 +9.6 98 +9 +9 1007.2 964.7 +6.8 22
03 27.05 СВ 1 20 км н/о +11.4 +10.6 95 +11 +11 1005.3 963.1
06 27.05 В 2 20 км н/о +10.4 +8.9 90 +9 +9 1004.7 962.4 0.4
09 27.05 В 1 20 км н/о +8.6 +8.1 97 +8 +8 1004.5 962.0
12 27.05 СВ 3 20 км н/о +7.6 +7.4 99 +5 +5 1003.4 960.8 +11.6

 

Местоположение метеостанции Квинстаун (Новая Зеландия): широта -45.01 долгота 168.73 высота над уровнем моря 358 м.

В архиве по умолчанию представлена погода в Квинстауне за последнюю неделю. Архивные данные за месяц целиком и за предыдущие месяцы, начиная с января 2011 года, Вы можете получить, выбрав интересующий диапазон дат из раскрывающегося списка и нажав кнопку "Ввод!".


*Определитесь, кто Вы:
робот инопланетянин человек

Внимание! Время в таблицах - всемирное. Для получения местного времени необходимо прибавить поправку, которая равна 12 ч.

Смотрите также архив погоды в соседних городах и на ближайших метеорологических станциях:

Погода в Тара Хилс (Новая Зеландия) (106 км)
Погода в Хаасте (Новая Зеландия) (130 км)
Погода на Острове Секретари (Новая Зеландия) (147 км)
Погода в Данидине (Новая Зеландия) (151 км)
Погода в Инверкаргилле (Новая Зеландия) (159 км)
Погода на Маяке Puysegur Point (Новая Зеландия) (208 км)
Погода в Тимару (Новая Зеландия) (213 км)
Погода на Мысе Юго-западный (Новая Зеландия) (269 км)
Погода в Хокитике (Новая Зеландия) (313 км)
Погода в Крайстчерче (Новая Зеландия) (346 км)

Пояснения к столбцам:

Ветер - указаны скорость ветра в м/с - средняя за 10 мин, порывы в срок и между сроками (в фигурных скобках) и направление, откуда дует ветер: С - северный, СВ - северо-восточный, В - восточный, ЮВ - юго-восточный, Ю - южный, ЮЗ - юго-западный, З - западный, СЗ - северо-западный.
Видимость - горизонтальная дальность видимости в метрах или километрах. При видимости от 1 до 10 км при отсутствии осадков обычно наблюдается дымка, при ухудшении видимости до 1 км и менее - туман. В сухую погоду видимость может ухудшаться дымом, пылью или мглою.
Явления - указаны атмосферные явления, наблюдавшиеся в срок или в последний час перед сроком; фигурными скобками обозначены явления, наблюдавшиеся между сроками (за 1-3 часа до срока); квадратными скобками обозначены град или гололедные отложения с указанием их диаметра в мм.
Облачность - указаны через наклонную черту общая и нижняя облачность в баллах и высота нижней границы облаков в метрах; квадратными скобками обозначены формы облаков: Ci - перистые, Cs - перисто-слоистые, Cc - перисто-кучевые, Ac - высококучевые, As - высокослоистые, Sc - слоисто-кучевые, Ns - слоисто-дождевые, Cu - кучевые, Cb - кучево-дождевые. Подробнее классификацию облаков см. в Атласе облаков (PDF).
T - Температура воздуха - температура, измеренная на высоте 2 м над землей.
Td - Температура точки росы - температура, при понижении до которой содержащийся в воздухе водяной пар достигнет насыщения.
f - Относительная влажность воздуха - влажноcть воздуха, измеренная на высоте 2 м над землей.
Te - Эффективная температура - температура, которую ощущает одетый по сезону человек в тени. Характеристика душности погоды. При расчете учитывается влияние влажности воздуха и скорости ветра на теплоощущения человека.
Tes - Эффективная температура на солнце - температура, которую ощущает человек, с поправкой на солнечный нагрев. Характеристика знойности погоды. Зависит от высоты солнца над горизонтом, облачности и скорости ветра. Ночью, в пасмурную погоду, а также при ветре 12 м/с и более поправка равна нулю.
P - Атмосферное давление - приведенное к уровню моря атмосферное давление.
Po - Атмосферное давление - измеренное на уровне метеостанции атмосферное давление.
Tmin - Минимальная температура - минимум температуры воздуха на высоте 2 м над землей.
Tmax - Максимальная температура - максимум температуры воздуха на высоте 2 м над землей.
R - Количество осадков - Количество выпавших осадков за период времени, мм. При наведении курсора мыши на число - период времени, за который выпало указанное количество осадков.
R24 - Количество осадков - Количество выпавших осадков за 24 часа, мм.
S - Снежный покров - Высота снежного покрова, см. При наведении курсора мыши на число - состояние снежного покрова и степень покрытия местности в баллах.